Hourly Data Report for October 10, 2020

SHEARWATER RCS
NOVA SCOTIA
Current Station Operator: ECCC - MSC

44°37'47.000" N
63°30'48.000" W
24.00 m
8205092
71264
AAW

Download Data

Hourly Data (October 2020)
Hourly Data Report for October 10, 2020
TIME Temp Definition
°C
Dew Point Definition
°C
Rel Hum Definition
%
Wind Dir Definition
10's deg

Wind Spd Definition
km/h
Visibility Definition
km
Stn Press Definition
kPa
Hmdx Definition


Wind Chill Definition


Weather Definition


00:00 7.8 3.6 75 25 14   101.37     LegendNANA
01:00 7.4 3.7 77 30 10   101.38     LegendNANA
02:00 7.4 3.9 78 24 9   101.39     LegendNANA
03:00 7.7 4.9 82 25 9   101.41     LegendNANA
04:00 8.8 5.3 78 24 8   101.42     LegendNANA
05:00 8.9 5.9 81 22 11   101.42     LegendNANA
06:00 9.6 5.6 76 23 14   101.34     LegendNANA
07:00 10.1 6.7 80 23 14   101.37     LegendNANA
08:00 11.8 6.8 72 21 21   101.32     LegendNANA
09:00 13.4 7.0 65 20 20   101.27     LegendNANA
10:00 13.6 8.1 69 19 27   101.22     LegendNANA
11:00 13.2 8.9 75 18 24   101.13     LegendNANA
12:00 14.3 10.1 76 19 28   101.03     LegendNANA
13:00 16.0 11.7 76 20 30   100.88     LegendNANA
14:00 17.1 12.0 72 21 41   100.74     LegendNANA
15:00 17.1 12.0 72 21 38   100.67     LegendNANA
16:00 16.4 12.1 76 22 38   100.65     LegendNANA
17:00 15.7 12.2 80 22 37   100.65     LegendNANA
18:00 15.0 12.1 83 21 33   100.66     LegendNANA
19:00 15.0 12.4 84 22 36   100.63     LegendNANA
20:00 14.9 12.2 84 21 33   100.58     LegendNANA
21:00 15.2 12.4 84 22 32   100.61     LegendNANA
22:00 15.3 12.4 83 22 30   100.57     LegendNANA
23:00 15.7 13.0 84 21 32   100.51     LegendNANA

Notes on Data Quality.

Legend

  • E = Estimated
  • M = Missing
  • NA = Not Available*
  • [empty] = Indicates an unobserved value
Date modified: